LAN056 SCAR-SCEL

Flight info

Callsign LAN056
Flight time 2h 6m
Altitude FL330
Route LOBAG2K LOBAG UQ803 SIMOK SIMOK.7B
Aircraft A19N/M-S/N

Departure

Time 2026-05-05 12:16
Airport Chacalluta International Airport (SCAR)

Arrival

Time 2026-05-05 14:23
Airport Comodoro Arturo Merino Benítez International Airport (SCEL)
Time Latitude Longitude Altitude Speed Heading
2026-05-05 12:04 -18.34922 -70.33637 177 ft 0 kts 133°
2026-05-05 12:05 -18.34923 -70.33637 177 ft 0 kts 133°
2026-05-05 12:07 -18.34923 -70.33636 177 ft 0 kts 133°
2026-05-05 12:08 -18.34924 -70.33636 177 ft 0 kts 133°
2026-05-05 12:09 -18.34923 -70.33636 177 ft 1 kts 133°
2026-05-05 12:09 -18.34915 -70.33646 177 ft 2 kts 133°
2026-05-05 12:09 -18.34902 -70.33661 177 ft 3 kts 133°
2026-05-05 12:10 -18.34888 -70.33676 177 ft 3 kts 133°
2026-05-05 12:10 -18.34874 -70.33692 177 ft 3 kts 133°
2026-05-05 12:10 -18.34860 -70.33708 177 ft 3 kts 133°
2026-05-05 12:10 -18.34859 -70.33710 177 ft 0 kts 133°
2026-05-05 12:11 -18.34860 -70.33698 177 ft 2 kts 50°
2026-05-05 12:11 -18.34823 -70.33687 177 ft 10 kts 14°
2026-05-05 12:11 -18.34719 -70.33653 177 ft 21 kts 18°
2026-05-05 12:11 -18.34550 -70.33596 177 ft 30 kts 18°
2026-05-05 12:12 -18.34357 -70.33524 177 ft 29 kts 20°
2026-05-05 12:12 -18.34155 -70.33448 177 ft 33 kts 19°
2026-05-05 12:12 -18.34028 -70.33405 177 ft 18 kts
2026-05-05 12:12 -18.33960 -70.33452 177 ft 4 kts 293°
2026-05-05 12:13 -18.33959 -70.33454 177 ft 0 kts 291°
2026-05-05 12:13 -18.33959 -70.33455 177 ft 0 kts 291°
2026-05-05 12:14 -18.33957 -70.33460 177 ft 3 kts 291°
2026-05-05 12:14 -18.33938 -70.33510 177 ft 11 kts 287°
2026-05-05 12:15 -18.33969 -70.33556 177 ft 5 kts 197°
2026-05-05 12:15 -18.34040 -70.33579 177 ft 34 kts 198°
2026-05-05 12:15 -18.34774 -70.33852 178 ft 131 kts 199°
2026-05-05 12:15 -18.34823 -70.33871 178 ft 135 kts 199°
2026-05-05 12:16 -18.35770 -70.34245 485 ft 166 kts 201°
2026-05-05 12:16 -18.36653 -70.34644 929 ft 191 kts 204°
2026-05-05 12:16 -18.37504 -70.35078 1264 ft 215 kts 205°
2026-05-05 12:16 -18.39033 -70.35336 1685 ft 235 kts 176°
2026-05-05 12:17 -18.40567 -70.34676 2150 ft 246 kts 145°
2026-05-05 12:17 -18.41786 -70.33392 2639 ft 251 kts 131°
2026-05-05 12:17 -18.42908 -70.31966 3094 ft 252 kts 130°
2026-05-05 12:17 -18.43878 -70.30852 3462 ft 252 kts 134°
2026-05-05 12:18 -18.44494 -70.30201 33249 ft 413 kts 135°
2026-05-05 12:18 -18.46678 -70.28193 33029 ft 424 kts 146°
2026-05-05 12:18 -18.49194 -70.26430 32988 ft 441 kts 152°
2026-05-05 12:18 -18.51927 -70.24889 32994 ft 451 kts 156°
2026-05-05 12:19 -18.57651 -70.21961 32997 ft 464 kts 157°
2026-05-05 12:19 -18.63487 -70.18927 32995 ft 469 kts 159°
2026-05-05 12:20 -18.66571 -70.17907 32996 ft 465 kts 171°
2026-05-05 12:20 -18.69759 -70.17410 32999 ft 463 kts 178°
2026-05-05 12:20 -18.76195 -70.17266 32998 ft 462 kts 185°
2026-05-05 12:21 -18.82603 -70.17610 32996 ft 461 kts 187°
2026-05-05 12:21 -18.88997 -70.18085 32996 ft 461 kts 187°
2026-05-05 12:22 -18.95403 -70.18563 32996 ft 461 kts 187°
2026-05-05 12:22 -19.01803 -70.19004 32996 ft 462 kts 186°
2026-05-05 12:23 -19.08207 -70.19406 32996 ft 462 kts 186°
2026-05-05 12:23 -19.14630 -70.19778 32996 ft 462 kts 186°
2026-05-05 12:24 -19.21046 -70.20129 32996 ft 462 kts 186°
2026-05-05 12:24 -19.27455 -70.20466 32996 ft 462 kts 186°
2026-05-05 12:25 -19.33873 -70.20796 32996 ft 462 kts 186°
2026-05-05 12:25 -19.40290 -70.21107 32996 ft 462 kts 185°
2026-05-05 12:26 -19.46727 -70.21262 32996 ft 463 kts 184°
2026-05-05 12:26 -19.53164 -70.21321 32996 ft 463 kts 183°
2026-05-05 12:27 -19.59600 -70.21346 32996 ft 463 kts 183°
2026-05-05 12:27 -19.66037 -70.21360 32996 ft 463 kts 183°
2026-05-05 12:28 -19.72483 -70.21374 32996 ft 463 kts 183°
2026-05-05 12:28 -19.78924 -70.21389 32996 ft 463 kts 183°
2026-05-05 12:29 -19.85363 -70.21406 32996 ft 463 kts 183°
2026-05-05 12:29 -19.91799 -70.21426 32996 ft 463 kts 183°
2026-05-05 12:30 -19.98239 -70.21447 32996 ft 463 kts 183°
2026-05-05 12:30 -20.04681 -70.21468 32996 ft 463 kts 183°
2026-05-05 12:31 -20.11113 -70.21490 32996 ft 463 kts 183°
2026-05-05 12:31 -20.17558 -70.21513 32996 ft 463 kts 183°
2026-05-05 12:32 -20.23998 -70.21536 32996 ft 463 kts 183°
2026-05-05 12:32 -20.30433 -70.21558 32996 ft 463 kts 183°
2026-05-05 12:33 -20.36867 -70.21581 32996 ft 463 kts 183°
2026-05-05 12:33 -20.43318 -70.21604 32996 ft 463 kts 183°
2026-05-05 12:34 -20.49773 -70.21627 32996 ft 463 kts 183°
2026-05-05 12:34 -20.56209 -70.21649 32996 ft 463 kts 183°
2026-05-05 12:35 -20.62642 -70.21672 32996 ft 463 kts 183°
2026-05-05 12:35 -20.69086 -70.21695 32996 ft 463 kts 183°
2026-05-05 12:36 -20.75531 -70.21718 32996 ft 463 kts 183°
2026-05-05 12:36 -20.81966 -70.21741 32996 ft 463 kts 183°
2026-05-05 12:37 -20.88405 -70.21763 32996 ft 463 kts 183°
2026-05-05 12:37 -20.94845 -70.21786 32996 ft 463 kts 183°
2026-05-05 12:38 -21.01286 -70.21809 32996 ft 463 kts 183°
2026-05-05 12:38 -21.07723 -70.21831 32996 ft 463 kts 183°
2026-05-05 12:39 -21.14163 -70.21854 32996 ft 463 kts 183°
2026-05-05 12:39 -21.20604 -70.21876 32996 ft 463 kts 183°
2026-05-05 12:40 -21.27038 -70.21899 32996 ft 463 kts 183°
2026-05-05 12:40 -21.33488 -70.21921 32996 ft 463 kts 183°
2026-05-05 12:41 -21.39926 -70.21944 32996 ft 463 kts 183°
2026-05-05 12:41 -21.46368 -70.21966 32996 ft 463 kts 183°
2026-05-05 12:42 -21.52802 -70.21989 32996 ft 463 kts 183°
2026-05-05 12:42 -21.59244 -70.22011 32996 ft 463 kts 183°
2026-05-05 12:43 -21.65683 -70.22034 32996 ft 463 kts 183°
2026-05-05 12:43 -21.72124 -70.22056 32996 ft 463 kts 183°
2026-05-05 12:44 -21.78563 -70.22079 32996 ft 463 kts 183°
2026-05-05 12:44 -21.84997 -70.22102 32996 ft 463 kts 184°
2026-05-05 12:45 -21.91410 -70.22513 32996 ft 461 kts 188°
2026-05-05 12:45 -21.97764 -70.23333 32996 ft 460 kts 191°
2026-05-05 12:46 -22.04083 -70.24302 32996 ft 459 kts 191°
2026-05-05 12:46 -22.10402 -70.25318 32996 ft 459 kts 192°
2026-05-05 12:47 -22.16731 -70.26346 32996 ft 459 kts 191°
2026-05-05 12:47 -22.23049 -70.27367 32996 ft 459 kts 191°
2026-05-05 12:48 -22.29371 -70.28382 32996 ft 459 kts 191°
2026-05-05 12:48 -22.35687 -70.29391 32996 ft 459 kts 191°
2026-05-05 12:49 -22.42008 -70.30397 32996 ft 459 kts 191°
2026-05-05 12:49 -22.48320 -70.31399 32996 ft 459 kts 191°
2026-05-05 12:50 -22.54657 -70.32404 32996 ft 459 kts 191°
2026-05-05 12:50 -22.60979 -70.33407 32996 ft 459 kts 191°
2026-05-05 12:51 -22.67297 -70.34409 32996 ft 459 kts 191°
2026-05-05 12:51 -22.73622 -70.35413 32996 ft 459 kts 191°
2026-05-05 12:52 -22.79945 -70.36418 32996 ft 459 kts 191°
2026-05-05 12:52 -22.86276 -70.37366 32996 ft 461 kts 189°
2026-05-05 12:53 -22.92673 -70.37815 32996 ft 462 kts 185°
2026-05-05 12:53 -22.99117 -70.37973 32996 ft 463 kts 184°
2026-05-05 12:54 -23.08775 -70.38037 32996 ft 463 kts 183°
2026-05-05 12:55 -23.15214 -70.38056 32996 ft 463 kts 183°
2026-05-05 12:55 -23.21648 -70.38078 32996 ft 463 kts 183°
2026-05-05 12:56 -23.28091 -70.38107 32996 ft 463 kts 183°
2026-05-05 12:56 -23.34528 -70.38142 32996 ft 463 kts 183°
2026-05-05 12:57 -23.40970 -70.38183 32996 ft 463 kts 183°
2026-05-05 12:57 -23.47405 -70.38227 32996 ft 463 kts 183°
2026-05-05 12:58 -23.53840 -70.38273 32996 ft 463 kts 183°
2026-05-05 12:58 -23.60282 -70.38321 32996 ft 463 kts 183°
2026-05-05 12:59 -23.66724 -70.38369 32996 ft 463 kts 183°
2026-05-05 12:59 -23.73152 -70.38417 32996 ft 463 kts 183°
2026-05-05 13:00 -23.82826 -70.38352 32996 ft 464 kts 182°
2026-05-05 13:01 -23.95717 -70.37968 32996 ft 464 kts 181°
2026-05-05 13:01 -24.02166 -70.37748 32996 ft 464 kts 181°
2026-05-05 13:02 -24.08608 -70.37527 32996 ft 464 kts 181°
2026-05-05 13:02 -24.15061 -70.37306 32996 ft 464 kts 181°
2026-05-05 13:03 -24.21514 -70.37087 32996 ft 464 kts 181°
2026-05-05 13:03 -24.27962 -70.36869 32996 ft 464 kts 181°
2026-05-05 13:04 -24.34401 -70.36653 32996 ft 464 kts 181°
2026-05-05 13:04 -24.40854 -70.36437 32996 ft 464 kts 181°
2026-05-05 13:05 -24.47301 -70.36221 32996 ft 464 kts 181°
2026-05-05 13:05 -24.53754 -70.36005 32996 ft 464 kts 181°
2026-05-05 13:06 -24.60195 -70.35790 32996 ft 464 kts 181°
2026-05-05 13:06 -24.66648 -70.35574 32996 ft 464 kts 181°
2026-05-05 13:07 -24.73091 -70.35358 32996 ft 464 kts 181°
2026-05-05 13:07 -24.79541 -70.35141 32996 ft 464 kts 181°
2026-05-05 13:08 -24.85985 -70.34925 32996 ft 464 kts 181°
2026-05-05 13:08 -24.92435 -70.34709 32996 ft 464 kts 181°
2026-05-05 13:09 -24.98889 -70.34492 32996 ft 464 kts 181°
2026-05-05 13:09 -25.05336 -70.34276 32996 ft 464 kts 181°
2026-05-05 13:10 -25.10704 -70.34095 32996 ft 464 kts 181°
2026-05-05 13:10 -25.17153 -70.33878 32996 ft 464 kts 181°
2026-05-05 13:11 -25.23608 -70.33661 32996 ft 464 kts 181°
2026-05-05 13:11 -25.30055 -70.33443 32996 ft 464 kts 181°
2026-05-05 13:12 -25.36506 -70.33225 32996 ft 464 kts 181°
2026-05-05 13:12 -25.42949 -70.33007 32996 ft 464 kts 181°
2026-05-05 13:13 -25.49392 -70.32789 32996 ft 464 kts 181°
2026-05-05 13:13 -25.55848 -70.32570 32996 ft 464 kts 181°
2026-05-05 13:14 -25.62292 -70.32351 32996 ft 464 kts 181°
2026-05-05 13:14 -25.68736 -70.32132 32996 ft 464 kts 181°
2026-05-05 13:15 -25.75190 -70.31913 32996 ft 464 kts 181°
2026-05-05 13:15 -25.81639 -70.31693 32996 ft 464 kts 181°
2026-05-05 13:16 -25.88079 -70.31473 32996 ft 464 kts 181°
2026-05-05 13:16 -25.94535 -70.31253 32996 ft 464 kts 181°
2026-05-05 13:17 -26.00987 -70.31032 32996 ft 464 kts 181°
2026-05-05 13:17 -26.03231 -70.30966 32996 ft 463 kts 182°
2026-05-05 13:18 -26.09661 -70.31131 32996 ft 462 kts 186°
2026-05-05 13:18 -26.16063 -70.31594 32996 ft 461 kts 187°
2026-05-05 13:19 -26.22456 -70.32167 32996 ft 461 kts 188°
2026-05-05 13:19 -26.28849 -70.32774 32996 ft 461 kts 188°
2026-05-05 13:20 -26.35234 -70.33386 32996 ft 461 kts 188°
2026-05-05 13:20 -26.41626 -70.33995 32996 ft 461 kts 188°
2026-05-05 13:21 -26.48012 -70.34598 32996 ft 461 kts 188°
2026-05-05 13:21 -26.54399 -70.35196 32996 ft 461 kts 188°
2026-05-05 13:22 -26.60789 -70.35792 32996 ft 461 kts 188°
2026-05-05 13:22 -26.67176 -70.36386 32996 ft 461 kts 188°
2026-05-05 13:23 -26.73571 -70.36979 32996 ft 461 kts 188°
2026-05-05 13:23 -26.79958 -70.37572 32996 ft 461 kts 188°
2026-05-05 13:24 -26.86346 -70.38165 32996 ft 461 kts 188°
2026-05-05 13:24 -26.92740 -70.38759 32996 ft 461 kts 188°
2026-05-05 13:25 -26.99127 -70.39354 32996 ft 461 kts 188°
2026-05-05 13:25 -27.05515 -70.39948 32996 ft 461 kts 188°
2026-05-05 13:26 -27.11913 -70.40544 32996 ft 461 kts 188°
2026-05-05 13:26 -27.18293 -70.41140 32996 ft 461 kts 188°
2026-05-05 13:27 -27.24691 -70.41738 32996 ft 461 kts 188°
2026-05-05 13:27 -27.31082 -70.42336 32996 ft 461 kts 188°
2026-05-05 13:28 -27.37472 -70.42934 32996 ft 461 kts 188°
2026-05-05 13:28 -27.43859 -70.43533 32996 ft 461 kts 188°
2026-05-05 13:29 -27.50249 -70.44134 32996 ft 461 kts 188°
2026-05-05 13:29 -27.56629 -70.44734 32996 ft 461 kts 188°
2026-05-05 13:30 -27.63030 -70.45336 32996 ft 461 kts 188°
2026-05-05 13:30 -27.69413 -70.45938 32996 ft 461 kts 188°
2026-05-05 13:31 -27.75800 -70.46541 32996 ft 461 kts 188°
2026-05-05 13:31 -27.82190 -70.47145 32996 ft 461 kts 188°
2026-05-05 13:32 -27.88580 -70.47749 32996 ft 461 kts 188°
2026-05-05 13:32 -27.94964 -70.48354 32996 ft 461 kts 188°
2026-05-05 13:33 -28.01357 -70.48960 32996 ft 461 kts 188°
2026-05-05 13:33 -28.07748 -70.49567 32996 ft 461 kts 188°
2026-05-05 13:34 -28.14138 -70.50175 32996 ft 461 kts 188°
2026-05-05 13:34 -28.20528 -70.50783 32996 ft 461 kts 188°
2026-05-05 13:35 -28.26912 -70.51391 32996 ft 461 kts 188°
2026-05-05 13:35 -28.33297 -70.52001 32996 ft 461 kts 188°
2026-05-05 13:36 -28.39686 -70.52611 32996 ft 461 kts 188°
2026-05-05 13:36 -28.46076 -70.53223 32996 ft 461 kts 188°
2026-05-05 13:37 -28.52467 -70.53829 32996 ft 461 kts 188°
2026-05-05 13:37 -28.58865 -70.54429 32996 ft 461 kts 188°
2026-05-05 13:38 -28.65249 -70.55027 32996 ft 461 kts 188°
2026-05-05 13:38 -28.71634 -70.55625 32996 ft 461 kts 188°
2026-05-05 13:39 -28.78035 -70.56226 32996 ft 461 kts 188°
2026-05-05 13:39 -28.84420 -70.56826 32996 ft 461 kts 188°
2026-05-05 13:40 -28.90814 -70.57430 32996 ft 461 kts 188°
2026-05-05 13:40 -28.97204 -70.58042 32996 ft 461 kts 188°
2026-05-05 13:41 -29.03594 -70.58658 32996 ft 461 kts 188°
2026-05-05 13:41 -29.09978 -70.59275 32996 ft 461 kts 188°
2026-05-05 13:42 -29.16361 -70.59893 32996 ft 461 kts 188°
2026-05-05 13:42 -29.22754 -70.60514 32996 ft 461 kts 188°
2026-05-05 13:43 -29.29146 -70.61134 32996 ft 461 kts 188°
2026-05-05 13:43 -29.35529 -70.61755 32996 ft 461 kts 188°
2026-05-05 13:44 -29.41912 -70.62377 32996 ft 461 kts 188°
2026-05-05 13:44 -29.48304 -70.63000 32996 ft 461 kts 188°
2026-05-05 13:45 -29.54689 -70.63624 32996 ft 461 kts 188°
2026-05-05 13:45 -29.61079 -70.64248 32996 ft 461 kts 188°
2026-05-05 13:46 -29.67465 -70.64873 32996 ft 461 kts 188°
2026-05-05 13:46 -29.73858 -70.65500 32996 ft 461 kts 188°
2026-05-05 13:47 -29.80246 -70.66127 32996 ft 461 kts 188°
2026-05-05 13:47 -29.86634 -70.66754 32996 ft 461 kts 188°
2026-05-05 13:48 -29.90639 -70.67148 32996 ft 461 kts 188°
2026-05-05 13:48 -29.97036 -70.67778 32996 ft 461 kts 188°
2026-05-05 13:49 -30.03423 -70.68408 32996 ft 461 kts 188°
2026-05-05 13:49 -30.09808 -70.69038 32996 ft 461 kts 188°
2026-05-05 13:50 -30.16195 -70.69669 32996 ft 461 kts 188°
2026-05-05 13:50 -30.22585 -70.70302 32996 ft 461 kts 188°
2026-05-05 13:51 -30.28972 -70.70935 32996 ft 461 kts 188°
2026-05-05 13:51 -30.35349 -70.71568 32996 ft 461 kts 188°
2026-05-05 13:52 -30.41745 -70.72204 32996 ft 461 kts 188°
2026-05-05 13:52 -30.48146 -70.72842 32753 ft 465 kts 188°
2026-05-05 13:53 -30.51385 -70.73166 32350 ft 469 kts 188°
2026-05-05 13:53 -30.54643 -70.73492 31908 ft 470 kts 188°
2026-05-05 13:53 -30.57904 -70.73816 31459 ft 470 kts 188°
2026-05-05 13:53 -30.61152 -70.74134 31011 ft 469 kts 188°
2026-05-05 13:54 -30.64394 -70.74450 30563 ft 468 kts 188°
2026-05-05 13:54 -30.67626 -70.74763 30114 ft 466 kts 188°
2026-05-05 13:54 -30.70856 -70.75075 29663 ft 464 kts 188°
2026-05-05 13:54 -30.74066 -70.75385 29214 ft 462 kts 188°
2026-05-05 13:55 -30.77260 -70.75694 28764 ft 460 kts 188°
2026-05-05 13:55 -30.80447 -70.76002 28314 ft 458 kts 188°
2026-05-05 13:55 -30.83612 -70.76309 27864 ft 456 kts 188°
2026-05-05 13:55 -30.86758 -70.76613 27415 ft 454 kts 188°
2026-05-05 13:56 -30.89896 -70.76918 26964 ft 451 kts 188°
2026-05-05 13:56 -30.93021 -70.77222 26513 ft 449 kts 188°
2026-05-05 13:56 -30.96116 -70.77523 26063 ft 446 kts 188°
2026-05-05 13:56 -30.99190 -70.77822 25614 ft 443 kts 188°
2026-05-05 13:57 -31.02252 -70.78121 25194 ft 439 kts 188°
2026-05-05 13:57 -31.05258 -70.78412 25055 ft 428 kts 188°
2026-05-05 13:57 -31.08185 -70.78695 24995 ft 415 kts 188°
2026-05-05 13:57 -31.11012 -70.78966 24989 ft 402 kts 188°
2026-05-05 13:58 -31.13758 -70.79231 24991 ft 392 kts 188°
2026-05-05 13:58 -31.16458 -70.79495 24994 ft 389 kts 188°
2026-05-05 13:58 -31.19160 -70.79764 24996 ft 392 kts 188°
2026-05-05 13:58 -31.21896 -70.80040 24997 ft 396 kts 188°
2026-05-05 13:59 -31.27435 -70.80598 24997 ft 403 kts 188°
2026-05-05 13:59 -31.30239 -70.80878 24996 ft 405 kts 188°
2026-05-05 14:00 -31.35858 -70.81432 24996 ft 406 kts 188°
2026-05-05 14:00 -31.37737 -70.81616 24996 ft 407 kts 188°
2026-05-05 14:00 -31.41500 -70.81984 24996 ft 407 kts 188°
2026-05-05 14:00 -31.44311 -70.82259 24996 ft 407 kts 188°
2026-05-05 14:01 -31.47130 -70.82535 24996 ft 407 kts 188°
2026-05-05 14:01 -31.49954 -70.82812 24996 ft 407 kts 188°
2026-05-05 14:01 -31.52769 -70.83088 24996 ft 407 kts 188°
2026-05-05 14:01 -31.55591 -70.83366 24996 ft 407 kts 188°
2026-05-05 14:02 -31.58408 -70.83643 24996 ft 407 kts 188°
2026-05-05 14:02 -31.61227 -70.83921 24996 ft 407 kts 188°
2026-05-05 14:02 -31.64043 -70.84199 24996 ft 407 kts 188°
2026-05-05 14:02 -31.66858 -70.84477 24996 ft 407 kts 188°
2026-05-05 14:03 -31.69674 -70.84755 24996 ft 407 kts 188°
2026-05-05 14:03 -31.72500 -70.84992 24996 ft 407 kts 186°
2026-05-05 14:03 -31.75329 -70.85098 24996 ft 408 kts 184°
2026-05-05 14:03 -31.78173 -70.85117 24996 ft 409 kts 183°
2026-05-05 14:04 -31.81019 -70.85082 24996 ft 409 kts 182°
2026-05-05 14:04 -31.83866 -70.85014 24917 ft 411 kts 182°
2026-05-05 14:04 -31.86774 -70.84929 24285 ft 423 kts 182°
2026-05-05 14:04 -31.89731 -70.84831 23658 ft 427 kts 181°
2026-05-05 14:05 -31.92710 -70.84725 23033 ft 429 kts 181°
2026-05-05 14:05 -31.94702 -70.84650 22617 ft 430 kts 181°
2026-05-05 14:05 -31.97687 -70.84537 21993 ft 430 kts 181°
2026-05-05 14:05 -32.00678 -70.84423 21368 ft 430 kts 181°
2026-05-05 14:06 -32.03667 -70.84308 20744 ft 430 kts 181°
2026-05-05 14:06 -32.06659 -70.84194 20119 ft 430 kts 181°
2026-05-05 14:06 -32.09645 -70.84082 19494 ft 430 kts 181°
2026-05-05 14:06 -32.12633 -70.83970 18869 ft 429 kts 181°
2026-05-05 14:07 -32.15610 -70.83861 18244 ft 428 kts 181°
2026-05-05 14:07 -32.18583 -70.83752 17619 ft 427 kts 181°
2026-05-05 14:07 -32.21548 -70.83644 16995 ft 426 kts 181°
2026-05-05 14:07 -32.24504 -70.83538 16370 ft 425 kts 181°
2026-05-05 14:08 -32.27454 -70.83432 15745 ft 423 kts 181°
2026-05-05 14:08 -32.30390 -70.83326 15120 ft 422 kts 181°
2026-05-05 14:08 -32.33318 -70.83221 14495 ft 420 kts 181°
2026-05-05 14:08 -32.34378 -70.83183 14269 ft 420 kts 181°
2026-05-05 14:09 -32.34449 -70.83180 14253 ft 420 kts 181°
2026-05-05 14:09 -32.37362 -70.83076 13628 ft 418 kts 181°
2026-05-05 14:09 -32.40261 -70.82972 13003 ft 416 kts 181°
2026-05-05 14:09 -32.43103 -70.82867 12384 ft 404 kts 181°
2026-05-05 14:10 -32.45896 -70.82764 12025 ft 396 kts 181°
2026-05-05 14:10 -32.48591 -70.82663 12000 ft 380 kts 181°
2026-05-05 14:10 -32.51183 -70.82565 11997 ft 365 kts 181°
2026-05-05 14:10 -32.53668 -70.82473 11996 ft 350 kts 182°
2026-05-05 14:11 -32.56055 -70.82386 11997 ft 337 kts 182°
2026-05-05 14:11 -32.58358 -70.82301 11997 ft 327 kts 182°
2026-05-05 14:11 -32.60615 -70.82221 11999 ft 323 kts 182°
2026-05-05 14:11 -32.62873 -70.82145 12001 ft 328 kts 182°
2026-05-05 14:12 -32.65169 -70.82070 12001 ft 332 kts 182°
2026-05-05 14:12 -32.67481 -70.81993 12001 ft 334 kts 182°
2026-05-05 14:12 -32.69812 -70.81913 12000 ft 335 kts 182°
2026-05-05 14:12 -32.72143 -70.81831 12000 ft 336 kts 182°
2026-05-05 14:13 -32.74481 -70.81747 12000 ft 336 kts 182°
2026-05-05 14:13 -32.76852 -70.81664 11614 ft 345 kts 182°
2026-05-05 14:13 -32.79230 -70.81578 11115 ft 338 kts 182°
2026-05-05 14:13 -32.81545 -70.81491 10614 ft 329 kts 182°
2026-05-05 14:14 -32.83803 -70.81404 10114 ft 321 kts 182°
2026-05-05 14:14 -32.86017 -70.81322 9612 ft 315 kts 182°
2026-05-05 14:14 -32.88181 -70.81241 9144 ft 308 kts 182°
2026-05-05 14:14 -32.90264 -70.81154 9033 ft 290 kts 182°
2026-05-05 14:15 -32.92211 -70.81062 9002 ft 271 kts 182°
2026-05-05 14:15 -32.94034 -70.80971 8994 ft 254 kts 182°
2026-05-05 14:15 -32.95786 -70.80885 8618 ft 254 kts 182°
2026-05-05 14:15 -32.97573 -70.80801 8119 ft 259 kts 182°
2026-05-05 14:16 -32.99383 -70.80713 7619 ft 262 kts 182°
2026-05-05 14:16 -33.01215 -70.80619 7120 ft 265 kts 182°
2026-05-05 14:16 -33.03063 -70.80527 6621 ft 267 kts 182°
2026-05-05 14:16 -33.04928 -70.80449 6121 ft 269 kts 181°
2026-05-05 14:17 -33.06808 -70.80382 5621 ft 272 kts 180°
2026-05-05 14:17 -33.08686 -70.80319 5151 ft 273 kts 179°
2026-05-05 14:17 -33.10556 -70.80259 5033 ft 259 kts 179°
2026-05-05 14:17 -33.12299 -70.80202 5002 ft 244 kts 179°
2026-05-05 14:18 -33.13941 -70.80150 4995 ft 230 kts 179°
2026-05-05 14:18 -33.15505 -70.80101 4900 ft 224 kts 179°
2026-05-05 14:18 -33.17096 -70.80052 4441 ft 230 kts 178°
2026-05-05 14:18 -33.18636 -70.80005 3944 ft 211 kts 178°
2026-05-05 14:19 -33.20049 -70.79893 3574 ft 196 kts 174°
2026-05-05 14:19 -33.21393 -70.79727 3513 ft 196 kts 174°
2026-05-05 14:19 -33.22759 -70.79602 3505 ft 200 kts 176°
2026-05-05 14:19 -33.24165 -70.79510 3502 ft 203 kts 177°
2026-05-05 14:20 -33.25573 -70.79427 3509 ft 204 kts 177°
2026-05-05 14:20 -33.27003 -70.79341 3503 ft 206 kts 177°
2026-05-05 14:20 -33.28437 -70.79253 3406 ft 210 kts 177°
2026-05-05 14:20 -33.29913 -70.79161 3098 ft 211 kts 177°
2026-05-05 14:21 -33.31312 -70.79075 2798 ft 191 kts 177°
2026-05-05 14:21 -33.32578 -70.78997 2545 ft 175 kts 177°
2026-05-05 14:21 -33.33749 -70.78924 2315 ft 163 kts 177°
2026-05-05 14:21 -33.34850 -70.78856 2103 ft 154 kts 177°
2026-05-05 14:22 -33.35873 -70.78792 1927 ft 141 kts 177°
2026-05-05 14:22 -33.36836 -70.78732 1714 ft 136 kts 177°
2026-05-05 14:22 -33.37753 -70.78675 1566 ft 128 kts 177°
2026-05-05 14:22 -33.38538 -70.78626 1566 ft 90 kts 177°
2026-05-05 14:23 -33.38998 -70.78598 1566 ft 47 kts 177°
2026-05-05 14:23 -33.39285 -70.78580 1566 ft 37 kts 177°
2026-05-05 14:23 -33.39513 -70.78571 1566 ft 26 kts 193°
2026-05-05 14:23 -33.39670 -70.78660 1567 ft 25 kts 209°
2026-05-05 14:24 -33.39740 -70.78774 1567 ft 16 kts 272°
2026-05-05 14:24 -33.39751 -70.78921 1567 ft 15 kts 262°
2026-05-05 14:24 -33.39732 -70.78985 1567 ft 8 kts 342°
2026-05-05 14:24 -33.39706 -70.78989 1567 ft 0 kts 358°